This demonstration page uses our WeatherBlox Daily Observations layout. Learn more.

Left ArrowRight Arrow

39.12711, -84.51439

Hourly Observations for June 13, 2021

Temp ( °F °C ) Dew Point ( °F °C ) Humidity (%) Winds ( mph kmh ) Pressure ( in mb ) Visibility ( mi km ) Precip ( " mm )
12:53 am 00:53 Clear 72 22.2 70 21.1 94 94 SSW 3 6 29.85 1011 8 13 N/A
1:53 am 01:53 Mostly Clear 73 22.8 71 21.7 94 94 VRB 3 6 29.84 1011 9 14 N/A
2:53 am 02:53 Clear 73 22.8 71 21.7 94 94 N 3 6 29.84 1010 9 14 0.00 0.00
3:53 am 03:53 Clear 72 22.2 71 21.7 97 97 N N/A 29.84 1010 8 13 N/A
4:53 am 04:53 Clear with Mist and Fog 71 21.7 70 21.1 96 96 N N/A 29.85 1011 6 10 N/A
5:53 am 05:53 Clear with Mist and Fog 69 20.6 68 20 96 96 N N/A 29.85 1011 5 8 N/A
6:14 am 06:14 Sunny with Mist and Fog 69 20.6 68 20 96 96 N N/A 29.86 1011 2 3 N/A
6:25 am 06:25 Sunny with Mist and Fog 70 21.1 68 20 93 93 N N/A 29.86 1011 4 6 N/A
6:53 am 06:53 Partly Cloudy with Mist and Fog 70 21.1 69 20.6 97 97 N N/A 29.85 1011 6 10 N/A
7:53 am 07:53 Mostly Sunny 74 23.3 71 21.7 91 91 N N/A 29.88 1012 10 16 N/A
8:53 am 08:53 Sunny 78 25.6 71 21.7 79 79 N N/A 29.88 1012 10 16 N/A
9:53 am 09:53 Sunny 80 26.7 71 21.7 74 74 SSE 5 7 29.89 1012 10 16 N/A
10:53 am 10:53 Mostly Sunny 82 27.8 69 20.6 65 65 SSE 3 6 29.89 1012 10 16 N/A
11:53 am 11:53 Sunny 86 30 70 21.1 59 59 VRB 3 6 29.88 1012 10 16 N/A
12:53 pm 12:53 Mostly Sunny 89 31.7 71 21.7 55 55 NW 8 13 29.88 1012 10 16 N/A
1:53 pm 13:53 Mostly Cloudy 87 30.6 70 21.1 57 57 VRB 3 6 29.87 1012 10 16 N/A
2:42 pm 14:42 Partly Cloudy with Nearby Thunderstorms 87 30.6 70 21.1 57 57 WNW 9 15 29.84 1010 10 16 N/A
2:53 pm 14:53 Sunny with Nearby Thunderstorms 85 29.4 70 21.1 61 61 N 15 24 29.86 1011 10 16 N/A
3:10 pm 15:10 Sunny 88 31.1 73 22.8 61 61 NW 10 17 29.84 1010 10 16 N/A
3:53 pm 15:53 Partly Cloudy 87 30.6 70 21.1 57 57 NW 12 19 29.83 1010 10 16 N/A
4:53 pm 16:53 Mostly Cloudy 89 31.7 68 20 50 50 N 10 17 29.83 1010 10 16 N/A
5:53 pm 17:53 Sunny 88 31.1 66 18.9 48 48 NNW 10 17 29.85 1011 10 16 N/A
6:53 pm 18:53 Mostly Sunny 88 31.1 65 18.3 46 46 N 14 22 29.83 1010 10 16 N/A
7:53 pm 19:53 Mostly Sunny 86 30 64 17.8 48 48 N 13 20 29.83 1010 10 16 N/A
8:53 pm 20:53 Sunny 83 28.3 60 15.6 46 46 N 9 15 29.84 1011 10 16 N/A
9:53 pm 21:53 Clear 80 26.7 59 15 49 49 NNW 6 9 29.87 1011 10 16 N/A
10:53 pm 22:53 Clear 74 23.3 61 16.1 64 64 N N/A 29.90 1013 10 16 N/A
11:53 pm 23:53 Clear 67 19.4 61 16.1 81 81 N N/A 29.92 1013 10 16 N/A

Powered by AerisWeather